WS Maaseik 1 Meer informatie WS Maaseik 1


WS Maaseik 2 Meer informatie WS Maaseik 2


Regen radar Meer informatie rain snow radar


Bezoek onze andere website:

Vorige versie
weerstation Maaseik


Bezoek ook eens deze sites:

Weerstation Geleen



Het weer levert geen direct gevaar op.    Er zijn geen waarschuwingen afgegeven.

15 daagse weersverwachting Heist-op-den-Berg (BE)

  • Overzicht
  • Per uur
  • 15 dagen
  • Extra
  • Vergelijk
  • Kaarten
  • Dagkaart
  • Meer »
  • Info
  • Statistieken
  • Directe link
    Temp 6h Neerslag Wind  
 06:15     21:20    Daglengte: 15:05 Vandaag
14:00
21°
 
2
20:00
21°
 
2
 06:16     21:18    Daglengte: 15:02 Morgen
02:00
17°
 
4
08:00
16°
2.7 mm
5
14:00
18°
2.1 mm
7
20:00
19°
 
5
 06:18     21:16    Daglengte: 14:58 Zaterdag 07 Aug
02:00
16°
1.6 mm
3
08:00
15°
 
2
14:00
21°
 
5
20:00
18°
14.0 mm
3
 06:19     21:15    Daglengte: 14:56 Zondag 08 Aug
02:00
15°
8.5 mm
5
08:00
15°
19.7 mm
8
Locatie info
Region: Flandern
Latitude: 51.0748°N
Longitude: 4.7279°E
36 masl
Postcode: 2220
Temp/Neerslag /Baro Onweer/Dauwpunt
    Temp Baro 1h Neerslag Dauwpunt Wind UV Bewolking  
 06:15     21:20    Daglengte: 15:05 Vandaag
13:00
21°
1009.0 hPa
43%
13.9°
1
Windvlaag: 2.5 m/s
65%
14:00
21°
1008.2 hPa
52%
13.8°
2
Windvlaag: 2.7 m/s
68%
15:00
21°
1007.7 hPa
53%
13.0°
2
Windvlaag: 4 m/s
84%
16:00
21°
1007.0 hPa
49%
12.6°
2
Windvlaag: 4.5 m/s
53%
17:00
22°
1006.3 hPa
11%
12.9°
2
Windvlaag: 3.7 m/s
16%
18:00
22°
1005.9 hPa   12.3°
3
Windvlaag: 5.4 m/s
19%
19:00
22°
1005.4 hPa
18%
11.4°
2
Windvlaag: 4.7 m/s
10%
20:00
21°
1005.1 hPa
50%
12.8°
2
Windvlaag: 4.9 m/s
11%
21:00
20°
1004.8 hPa
45%
14.1°
2
Windvlaag: 3.7 m/s
27%
22:00
19°
1004.6 hPa   13.9°
3
Windvlaag: 4.1 m/s
42%
23:00
18°
1004.2 hPa
22%
14.1°
3
Windvlaag: 6.1 m/s
78%
 06:16     21:18    Daglengte: 15:02 Morgen
00:00
18°
1003.7 hPa
53%
14.2°
4
Windvlaag: 7.4 m/s
70%
01:00
18°
1003.0 hPa
23%
14.2°
4
Windvlaag: 7.7 m/s
84%
02:00
17°
1002.5 hPa
68%
14.6°
4
Windvlaag: 9 m/s
86%
03:00
17°
1001.9 hPa 1.8 mm
82%
14.8°
4
Windvlaag: 8.3 m/s
86%
04:00
17°
1001.5 hPa
81%
14.9°
4
Windvlaag: 8.5 m/s
65%
05:00
16°
1000.9 hPa
76%
15.1°
4
Windvlaag: 7.4 m/s
81%
06:00
16°
1000.9 hPa 0.9 mm
82%
14.8°
4
Windvlaag: 6.6 m/s
86%
07:00
16°
1001.2 hPa
81%
14.8°
4
Windvlaag: 7.5 m/s
64%
08:00
16°
1001.6 hPa
21%
14.8°
5
Windvlaag: 6.8 m/s
51%
09:00
17°
1001.8 hPa
26%
14.6°
6
Windvlaag: 8.3 m/s
20%
10:00
17°
1002.1 hPa
22%
14.7°
6
Windvlaag: 8.6 m/s
46%
11:00
17°
1002.4 hPa
82%
14.8°
7
Windvlaag: 8.6 m/s
24%
12:00
18°
1002.5 hPa 1.1 mm
82%
14.7°
7
Windvlaag: 10.4 m/s
22%
13:00
18°
1002.8 hPa 1.0 mm
80%
14.6°
7
Windvlaag: 10.5 m/s
44%
14:00
18°
1002.8 hPa
36%
14.8°
7
Windvlaag: 9.7 m/s
24%
15:00
19°
1003.1 hPa
37%
15.9°
8
Windvlaag: 9.5 m/s
17%
16:00
19°
1003.4 hPa
20%
13.3°
8
Windvlaag: 8.9 m/s
16%
17:00
20°
1003.6 hPa
16%
13.1°
7
Windvlaag: 7.2 m/s
18%
18:00
20°
1003.8 hPa
14%
12.6°
7
Windvlaag: 6.8 m/s
9%
19:00
20°
1004.1 hPa
14%
12.4°
6
Windvlaag: 6.8 m/s
8%
20:00
19°
1004.3 hPa
14%
12.2°
5
Windvlaag: 6.3 m/s
7%
21:00
18°
1004.7 hPa
17%
11.6°
4
Windvlaag: 6.1 m/s
1%
22:00
17°
1005.0 hPa
14%
11.4°
3
Windvlaag: 5.6 m/s
2%
23:00
16°
1005.3 hPa
14%
11.6°
3
Windvlaag: 6.1 m/s
13%
 06:18     21:16    Daglengte: 14:58 Zaterdag 07 Aug
00:00
16°
1005.4 hPa
77%
12.0°
3
Windvlaag: 6.5 m/s
50%
01:00
16°
1005.4 hPa 1.6 mm
82%
12.1°
3
Windvlaag: 6.9 m/s
60%
02:00
16°
1005.2 hPa
28%
12.8°
3
Windvlaag: 6.9 m/s
14%
03:00
15°
1004.8 hPa
18%
13.2°
3
Windvlaag: 6.7 m/s
55%
04:00
15°
1004.7 hPa
15%
13.0°
3
Windvlaag: 7.3 m/s
15%
05:00
15°
1004.4 hPa
14%
12.9°
3
Windvlaag: 6.7 m/s
13%
06:00
14°
1004.2 hPa
14%
12.6°
2
Windvlaag: 4.8 m/s
16%
07:00
14°
1004.1 hPa
14%
12.5°
2
Windvlaag: 4.3 m/s
20%
08:00
15°
1004.1 hPa
17%
13.2°
2
Windvlaag: 3.7 m/s
20%
09:00
16°
1004.0 hPa
69%
13.8°
2
Windvlaag: 4 m/s
14%
10:00
17°
1003.7 hPa
14%
14.8°
4
Windvlaag: 7.1 m/s
11%
11:00
19°
1003.2 hPa
30%
9.9°
4
Windvlaag: 6.7 m/s
26%
12:00
20°
1002.7 hPa
28%
10.2°
4
Windvlaag: 7 m/s
42%
13:00
21°
1002.1 hPa
27%
10.6°
5
Windvlaag: 7.4 m/s
39%
14:00
21°
1001.7 hPa
95%
11.4°
5
Windvlaag: 7.9 m/s
32%
15:00
21°
1001.3 hPa 1.5 mm
100%
11.2°
5
Windvlaag: 8.3 m/s
46%
16:00
21°
1001.1 hPa 3.2 mm
100%
10.3°
5
Windvlaag: 8.9 m/s
77%
17:00
21°
1000.9 hPa 2.6 mm
100%
11.2°
5
Windvlaag: 8.4 m/s
85%
18:00
20°
1000.8 hPa 1.8 mm
100%
9.4°
5
Windvlaag: 8.4 m/s
89%
19:00
20°
1000.7 hPa 2.6 mm
60%
8.2°
4
Windvlaag: 8.1 m/s
82%
20:00
18°
1000.8 hPa 2.2 mm
100%
6.9°
3
Windvlaag: 6.9 m/s
73%
21:00
18°
1001.0 hPa 3.1 mm
50%
9.5°
5
Windvlaag: 7.6 m/s
61%
22:00
17°
1001.4 hPa 2.6 mm
89%
10.9°
4
Windvlaag: 7.9 m/s
49%
23:00
17°
1001.8 hPa
22%
11.1°
5
Windvlaag: 7.6 m/s
54%
 06:19     21:15    Daglengte: 14:56 Zondag 08 Aug
00:00
16°
1002.1 hPa 2.7 mm
21%
11.3°
5
Windvlaag: 8 m/s
35%
01:00
15°
1002.4 hPa
23%
11.3°
5
Windvlaag: 9.1 m/s
93%
02:00
15°
1002.6 hPa
84%
11.7°
5
Windvlaag: 8.6 m/s
95%
03:00
15°
1002.4 hPa 3.3 mm
100%
11.5°
6
Windvlaag: 9 m/s
91%
04:00
15°
1002.5 hPa 3.1 mm
100%
12.4°
7
Windvlaag: 9.2 m/s
95%
05:00
15°
1002.7 hPa 2.9 mm
100%
12.7°
7
Windvlaag: 8.7 m/s
94%
06:00
15°
1003.2 hPa
36%
13.0°
7
Windvlaag: 9.8 m/s
87%
07:00
15°
1003.9 hPa
21%
13.5°
8
Windvlaag: 9.9 m/s
57%
08:00
15°
1004.8 hPa
24%
13.2°
8
Windvlaag: 11.3 m/s
66%
09:00
16°
1005.8 hPa
14%
-35.9°
8
Windvlaag: 0 m/s
1%
Temp/Neerslag /Baro Onweer/Dauwpunt
    Temp Baro Neerslag Dauwpunt Wind Bewolking  
 06:15     21:20    Daglengte: 15:05 Vandaag
14:00
21°
1008.2 hPa   13.8°
2
68%
17:00
22°
1006.3 hPa   12.9°
2
16%
20:00
21°
1005.1 hPa   12.8°
2
11%
23:00
18°
1004.2 hPa   14.1°
3
78%
 06:16     21:18    Daglengte: 15:02 Morgen
02:00
17°
1002.5 hPa   14.6°
4
86%
05:00
16°
1000.9 hPa 1.8 mm 15.1°
4
81%
08:00
16°
1001.6 hPa 0.9 mm 14.8°
5
51%
11:00
17°
1002.4 hPa   14.8°
7
24%
14:00
18°
1002.8 hPa 2.1 mm 14.8°
7
24%
17:00
20°
1003.6 hPa   13.1°
7
18%
20:00
19°
1004.3 hPa   12.2°
5
7%
23:00
16°
1005.3 hPa   11.6°
3
13%
 06:18     21:16    Daglengte: 14:58 Zaterdag 07 Aug
02:00
16°
1005.2 hPa 1.6 mm 12.8°
3
14%
05:00
15°
1004.4 hPa   12.9°
3
13%
08:00
15°
1004.1 hPa   13.2°
2
20%
11:00
19°
1003.2 hPa   9.9°
4
26%
14:00
21°
1001.7 hPa   11.4°
5
32%
17:00
21°
1000.9 hPa 7.3 mm 11.2°
5
85%
20:00
18°
1000.8 hPa 6.6 mm 6.9°
3
73%
23:00
17°
1001.8 hPa 5.7 mm 11.1°
5
54%
 06:19     21:15    Daglengte: 14:56 Zondag 08 Aug
02:00
15°
1002.6 hPa 2.7 mm 11.7°
5
95%
05:00
15°
1002.7 hPa 9.2 mm 12.7°
7
94%
08:00
15°
1004.8 hPa   13.2°
8
66%
11:00
17°
1007.0 hPa   13.6°
8
11%
14:00
19°
1008.3 hPa 2.5 mm 12.7°
9
57%
17:00
21°
1010.1 hPa 12.4 mm 11.3°
8
1%
20:00
18°
1012.4 hPa 12.4 mm 11.9°
7
0%
23:00
15°
1014.2 hPa 12.4 mm 10.2°
5
0%
 06:21     21:13    Daglengte: 14:52 Maandag 09 Aug
02:00
15°
1015.0 hPa 12.4 mm 10.4°
5
1%
05:00
14°
1015.4 hPa 12.4 mm 10.0°
5
1%
08:00
14°
1016.5 hPa 12.4 mm 11.2°
5
0%
11:00
18°
1017.8 hPa 12.4 mm 12.9°
7
0%
14:00
19°
1018.4 hPa 13.2 mm 14.3°
6
1%
17:00
20°
1018.8 hPa 14.6 mm 14.5°
6
1%
20:00
18°
1019.6 hPa 15.8 mm 14.4°
4
1%
23:00
15°
1020.9 hPa 15.8 mm 13.5°
3
1%
 06:23     21:11    Daglengte: 14:48 Dinsdag 10 Aug
02:00
14°
1021.6 hPa 15.8 mm 13.0°
3
1%
05:00
13°
1021.4 hPa 15.8 mm 12.3°
3
0%
08:00
14°
1022.0 hPa 15.8 mm 13.2°
4
1%
11:00
19°
1022.6 hPa 15.8 mm 14.8°
5
1%
14:00
23°
1021.5 hPa 15.9 mm 13.7°
5
1%
17:00
23°
1020.7 hPa 15.9 mm 12.5°
4
0%
20:00
21°
1020.3 hPa 15.9 mm 14.4°
3
0%
23:00
16°
1021.1 hPa 15.9 mm 12.2°
1
0%
 06:24     21:09    Daglengte: 14:45 Woensdag 11 Aug
02:00
15°
1020.5 hPa 15.9 mm 12.2°
2
0%
05:00
14°
1020.0 hPa 15.9 mm 12.3°
2
0%
08:00
16°
1020.4 hPa 15.9 mm 13.3°
2
0%
11:00
19°
1020.8 hPa 15.9 mm 13.8°
3
1%
14:00
24°
1020.7 hPa 15.9 mm 15.0°
3
1%
17:00
22°
1020.5 hPa 16.0 mm 15.4°
3
1%
20:00
21°
1020.9 hPa 16.2 mm 16.1°
1
1%
23:00
18°
1022.2 hPa 16.2 mm 15.0°
1
1%
 06:26     21:07    Daglengte: 14:41 Donderdag 12 Aug
02:00
18°
1022.2 hPa 16.2 mm 14.7°
2
1%
05:00
18°
1021.9 hPa 16.3 mm 14.8°
1
1%
08:00
18°
1022.5 hPa 16.9 mm 15.8°
1
1%
11:00
21°
1023.2 hPa   16.6°
1
1%
14:00
25°
1023.0 hPa 35.1 mm 16.9°
1
1%
20:00
23°
1022.6 hPa 36.2 mm 18.0°
2
0%
 06:27     21:05    Daglengte: 14:38 Vrijdag 13 Aug
02:00
17°
1023.2 hPa 36.3 mm 15.7°
3
0%
08:00
18°
1022.7 hPa 36.3 mm 15.6°
3
1%
14:00
26°
1020.9 hPa 36.3 mm 16.7°
3
1%
20:00
24°
1018.0 hPa 36.3 mm 18.1°
3
0%
 06:29     21:03    Daglengte: 14:34 Zaterdag 14 Aug
02:00
18°
1016.5 hPa 36.3 mm 14.5°
3
0%
08:00
18°
1014.0 hPa 36.3 mm 14.7°
2
0%
14:00
29°
1010.8 hPa 36.3 mm 17.1°
3
0%
20:00
23°
1007.9 hPa 38.7 mm 20.5°
7
1%
 06:30     21:01    Daglengte: 14:31 Zondag 15 Aug
02:00
16°
1009.2 hPa 51.5 mm 14.9°
5
1%
08:00
15°
1014.4 hPa 0.8 mm 12.6°
2
63%
14:00
21°
1014.1 hPa 0.4 mm 12.9°
3
64%
20:00
19°
1013.6 hPa 0.8 mm 13.6°
2
58%
 06:32     20:59    Daglengte: 14:27 Maandag 16 Aug
02:00
15°
1014.0 hPa 0.4 mm 12.4°
2
48%
08:00
15°
1013.7 hPa 0.3 mm 12.5°
3
53%
14:00
21°
1014.5 hPa 0.8 mm 13.1°
4
59%
20:00
19°
1015.1 hPa 0.7 mm 13.3°
3
59%
 06:33     20:57    Daglengte: 14:24 Dinsdag 17 Aug
02:00
15°
1016.0 hPa 0.4 mm 11.9°
2
53%
08:00
15°
1016.2 hPa 0.2 mm 12.5°
3
48%
14:00
22°
1016.4 hPa 0.9 mm 13.4°
4
54%
20:00
20°
1016.2 hPa 0.9 mm 13.9°
2
56%
 06:35     20:55    Daglengte: 14:20 Woensdag 18 Aug
02:00
16°
1016.7 hPa 0.6 mm 12.8°
2
47%
08:00
16°
1016.4 hPa 0.4 mm 13.2°
2
51%
14:00
22°
1016.1 hPa 0.5 mm 13.9°
3
52%
20:00
20°
1015.9 hPa 0.9 mm 14.1°
2
60%
 06:36     20:53    Daglengte: 14:17 Donderdag 19 Aug
02:00
16°
1016.7 hPa 0.8 mm 12.7°
1
49%
08:00
16°
1016.1 hPa 0.8 mm 13.0°
2
43%
14:00
22°
1015.5 hPa 1.6 mm 13.8°
3
52%
20:00
20°
1015.2 hPa 0.3 mm 13.9°
2
51%
 06:38     20:51    Daglengte: 14:13 Vrijdag 20 Aug
02:00
15°
1015.7 hPa 0.8 mm 12.2°
1
43%
08:00
15°
1015.4 hPa 0.5 mm 12.8°
2
45%
  CAPE Lifted Index Hail Supercell Tornado SRH 3km CL BTM PRES CL TOP PRES Swiss DWD icon SMHI TS
 06:15     21:20    Daglengte: 15:05 Vandaag
13:00 160 J/kg 1.1 K 0 % 0 % 0 % 0 m²/s² 0 0 2.33 3
14:00 132 J/kg 1.2 K 0 % 0 % 0 % 0 m²/s² 0 0 3.06 3
15:00 118 J/kg 1.1 K 0 % 0 % 0 % 0 m²/s² 0 0 3.71 3
16:00 111 J/kg 1.2 K 0 % 0 % 0 % 0 m²/s² 0 0 4.44 3
17:00 136 J/kg 1.1 K 0 % 0 % 0 % 0 m²/s² 0 0 4.34 2
18:00 163 J/kg 0.8 K 0 % 0 % 0 % 0 m²/s² 0 0 3.65 1
19:00 147 J/kg 0.6 K 0 % 0 % 0 % 0 m²/s² 0 0 3.3 1
20:00 168 J/kg 0.2 K 0 % 0 % 0 % 0 m²/s² 0 0 2.45 2
21:00 148 J/kg 0.1 K 0 % 0 % 0 % 0 m²/s² 0 0 2.17 3
22:00 95 J/kg 0.3 K 0 % 0 % 0 % 0 m²/s² 0 0 1.71 3
23:00 77 J/kg 0.0 K 0 % 0 % 0 % 0 m²/s² 0 0 0.51 3
 06:16     21:18    Daglengte: 15:02 Morgen
00:00 43 J/kg 0.2 K 0 % 0 % 0 % 0 m²/s² 0 0 0.86 61
01:00 17 J/kg 0.6 K 0 % 0 % 0 % 0 m²/s² 0 0 0.9 3
02:00 1 J/kg -0.8 K 0 % 0 % 0 % 0 m²/s² 0 0 -0.53 3
03:00 14 J/kg -1.3 K 0 % 0 % 0 % 0 m²/s² 0 0 -0.64 81
04:00 40 J/kg -1.2 K 0 % 0 % 0 % 0 m²/s² 0 0 -0.27 80
05:00 47 J/kg -0.7 K 0 % 0 % 0 % 0 m²/s² 0 0 -0.37 3
06:00 223 J/kg -0.5 K 0 % 0 % 0 % 0 m²/s² 0 0 0.85 3
07:00 59 J/kg 1.3 K 0 % 0 % 0 % 0 m²/s² 0 0 3.79 3
08:00 75 J/kg 1.2 K 0 % 0 % 0 % 0 m²/s² 0 0 2.88 3
09:00 131 J/kg 0.6 K 0 % 0 % 0 % 0 m²/s² 0 0 3.45 3
10:00 115 J/kg 1.1 K 0 % 0 % 0 % 0 m²/s² 0 0 3.65 2
11:00 115 J/kg 1.1 K 0 % 0 % 0 % 0 m²/s² 0 0 3.44 3
12:00 115 J/kg 1.2 K 0 % 0 % 0 % 0 m²/s² 0 0 3.75 80
13:00 97 J/kg 1.6 K 0 % 0 % 0 % 0 m²/s² 0 0 4.21 3
14:00 176 J/kg 0.7 K 0 % 0 % 0 % 0 m²/s² 0 0 2.74 2
15:00 147 J/kg 0.4 K 0 % 0 % 0 % 0 m²/s² 0 0 0.82 2
16:00 280 J/kg -0.5 K 0 % 0 % 0 % 0 m²/s² 0 0 2.74 2
17:00 230 J/kg -0.6 K 0 % 0 % 0 % 0 m²/s² 0 0 2.46 2
18:00 192 J/kg -0.2 K 0 % 0 % 0 % 0 m²/s² 0 0 3.04 2
19:00 164 J/kg 0.2 K 0 % 0 % 0 % 0 m²/s² 0 0 3.8 2
20:00 117 J/kg 0.9 K 0 % 0 % 0 % 0 m²/s² 0 0 4.59 2
21:00 34 J/kg 1.8 K 0 % 0 % 0 % 0 m²/s² 0 0 5.97 2
22:00 8 J/kg 2.5 K 0 % 0 % 0 % 0 m²/s² 0 0 6.67 1
23:00 4 J/kg 3.1 K 0 % 0 % 0 % 0 m²/s² 0 0 6.97 2
 06:18     21:16    Daglengte: 14:58 Zaterdag 07 Aug
00:00 0 J/kg 4.0 K 0 % 0 % 0 % 0 m²/s² 0 0 7.12 3
01:00 0 J/kg 4.3 K 0 % 0 % 0 % 0 m²/s² 0 0 7.18 3
02:00 0 J/kg 4.4 K 0 % 0 % 0 % 0 m²/s² 0 0 7.88 2
03:00 0 J/kg 4.4 K 0 % 0 % 0 % 0 m²/s² 0 0 7.7 3
04:00 0 J/kg 4.3 K 0 % 0 % 0 % 0 m²/s² 0 0 7.78 2
05:00 0 J/kg 3.9 K 0 % 0 % 0 % 0 m²/s² 0 0 7.29 1
06:00 0 J/kg 3.7 K 0 % 0 % 0 % 0 m²/s² 0 0 6.13 1
07:00 0 J/kg 3.7 K 0 % 0 % 0 % 0 m²/s² 0 0 5.98 2
08:00 0 J/kg 3.6 K 0 % 0 % 0 % 0 m²/s² 0 0 5.88 2
09:00 5 J/kg 2.4 K 0 % 0 % 0 % 0 m²/s² 0 0 4.47 1
10:00 24 J/kg 1.7 K 0 % 0 % 0 % 0 m²/s² 0 0 3.98 2
11:00 83 J/kg 1.2 K 0 % 0 % 0 % 0 m²/s² 0 0 2.91 2
12:00 126 J/kg 0.7 K 0 % 0 % 0 % 0 m²/s² 0 0 2.35 2
13:00 140 J/kg 0.2 K 0 % 0 % 0 % 0 m²/s² 0 0 2.21 2
14:00 279 J/kg -0.8 K 0 % 0 % 0 % 0 m²/s² 0 0 1.09 2
15:00 294 J/kg -0.6 K 0 % 0 % 0 % 0 m²/s² 0 0 1.47 3
16:00 228 J/kg -0.4 K 0 % 0 % 0 % 0 m²/s² 0 0 1.97 3
17:00 314 J/kg -0.9 K 0 % 0 % 0 % 0 m²/s² 0 0 1.2 3
18:00 322 J/kg -1.0 K 0 % 0 % 0 % 0 m²/s² 0 0 0.05 80
19:00 181 J/kg -0.6 K 0 % 0 % 0 % 0 m²/s² 0 0 0.57 3
20:00 199 J/kg -0.9 K 0 % 0 % 0 % 0 m²/s² 0 0 0.18 80
21:00 228 J/kg -0.9 K 0 % 0 % 0 % 0 m²/s² 0 0 -0.39 3
22:00 290 J/kg -1.8 K 0 % 0 % 0 % 0 m²/s² 0 0 -1.5 3
23:00 416 J/kg -2.1 K 0 % 0 % 0 % 0 m²/s² 0 0 -0.93 2
 06:19     21:15    Daglengte: 14:56 Zondag 08 Aug
00:00 329 J/kg -1.8 K 0 % 0 % 0 % 0 m²/s² 0 0 0.42 2
01:00 0 J/kg 0.3 K 0 % 0 % 0 % 0 m²/s² 0 0 1.08 3
02:00 0 J/kg 1.3 K 0 % 0 % 0 % 0 m²/s² 0 0 1.72 3
03:00 0 J/kg 0.9 K 0 % 0 % 0 % 0 m²/s² 0 0 1.14 61
04:00 32 J/kg -0.3 K 0 % 0 % 0 % 0 m²/s² 0 0 0.24 61
05:00 107 J/kg -1.3 K 0 % 0 % 0 % 0 m²/s² 0 0 -0.79 61
06:00 192 J/kg -0.7 K 0 % 0 % 0 % 0 m²/s² 0 0 0.35 3
07:00 164 J/kg -0.8 K 0 % 0 % 0 % 0 m²/s² 0 0 -0.59 3
08:00 207 J/kg -0.8 K 0 % 0 % 0 % 0 m²/s² 0 0 -0.38 3
09:00 0 J/kg 0.0 K 0 % 0 % 0 % 0 m²/s² 0 0 13.83 2
Temp Baro Wind Neerslag
  EWN Forecast EWN WRFDA DWD ICON FMI HIRLAM MET Norway GFS
 06:15     21:20    Daglengte: 15:05 Vandaag
14:00 21.5° 1008.2 hPa 1.8 m/s 0.0 mm 22.2° 1007.2 hPa 1.5 m/s 0.1 mm 20.8° 1008.5 hPa 1.6 m/s -1.8 mm 21.6° 1008.3 hPa 2.3 m/s 0.0 mm 21.9° 1008.0 hPa 3.2 m/s
17:00 22.0° 1006.3 hPa 2.5 m/s 0.0 mm 23.4° 1005.4 hPa 3.5 m/s 0.2 mm 21.9° 1006.3 hPa 2.6 m/s 0.1 mm 22.0° 1006.2 hPa 2.4 m/s 0.0 mm 22.9° 1006.3 hPa 3.7 m/s
20:00 20.9° 1005.1 hPa 2.4 m/s 0.0 mm 22.5° 1004.4 hPa 3.7 m/s 0.2 mm 21.0° 1004.9 hPa 2.2 m/s 0.0 mm 20.9° 1005.3 hPa 1.9 m/s 0.0 mm 19.2° 1005.1 hPa 3.1 m/s
23:00 18.2° 1004.2 hPa 3.1 m/s 0.0 mm 18.5° 1003.4 hPa 3.7 m/s 0.2 mm 18.2° 1004.6 hPa 2.5 m/s 0.0 mm 18.4° 1004.3 hPa 2.9 m/s 0.0 mm 15.7° 1004.0 hPa 3.8 m/s
 06:16     21:18    Daglengte: 15:02 Morgen
02:00 17.0° 1002.5 hPa 3.9 m/s 0.0 mm 17.0° 1002.0 hPa 3.5 m/s 1.0 mm 17.0° 1002.6 hPa 3.8 m/s 0.5 mm 17.4° 1002.1 hPa 3.7 m/s 0.0 mm 15.6° 1002.8 hPa 4.7 m/s
05:00 16.5° 1000.9 hPa 3.9 m/s 1.8 mm 16.5° 1000.1 hPa 3.9 m/s 5.4 mm 16.5° 1001.1 hPa 4.5 m/s 3.2 mm 16.7° 1000.5 hPa 3.6 m/s 0.0 mm 15.7° 1001.4 hPa 5.6 m/s
08:00 16.5° 1001.6 hPa 4.8 m/s 0.9 mm 15.9° 1001.2 hPa 4.4 m/s 6.8 mm 16.7° 1001.8 hPa 4.8 m/s 0.2 mm 16.5° 1000.8 hPa 4.5 m/s 0.0 mm 15.8° 1002.2 hPa 5.9 m/s
11:00 17.5° 1002.4 hPa 6.7 m/s 0.0 mm 19.4° 1001.6 hPa 6.7 m/s 7.6 mm 18.5° 1002.6 hPa 7.4 m/s 0.1 mm 17.1° 1001.4 hPa 6.7 m/s 0.0 mm 18.5° 1002.9 hPa 8.2 m/s
14:00 18.4° 1002.8 hPa 7.4 m/s 2.1 mm 20.2° 1001.8 hPa 7.9 m/s 7.8 mm 20.6° 1003.3 hPa 8.7 m/s 0.4 mm 17.5° 1001.9 hPa 7.0 m/s 0.0 mm 20.4° 1003.4 hPa 9.1 m/s
17:00 19.9° 1003.6 hPa 7.3 m/s 0.0 mm 21.5° 1001.8 hPa 9.0 m/s 20.1 mm 21.2° 1004.1 hPa 7.7 m/s 0.0 mm 18.3° 1003.2 hPa 7.0 m/s 0.0 mm 21.2° 1003.5 hPa 8.0 m/s
20:00 19.2° 1004.3 hPa 5.1 m/s 0.0 mm 19.9° 1002.8 hPa 7.4 m/s 20.6 mm 20.1° 1004.4 hPa 4.4 m/s 0.0 mm 18.1° 1004.0 hPa 6.1 m/s 0.0 mm 19.0° 1004.6 hPa 6.1 m/s
23:00 16.3° 1005.3 hPa 3.3 m/s 0.0 mm 16.2° 1004.1 hPa 3.8 m/s 20.6 mm 16.2° 1005.0 hPa 2.5 m/s 0.0 mm 16.6° 1005.5 hPa 3.5 m/s 0.0 mm 15.0° 1005.5 hPa 3.6 m/s
 06:18     21:16    Daglengte: 14:58 Zaterdag 07 Aug
02:00 15.6° 1005.2 hPa 3.0 m/s 1.6 mm 14.5° 1003.4 hPa 3.7 m/s 20.6 mm 15.9° 1005.0 hPa 2.0 m/s 0.2 mm 14.5° 1005.5 hPa 3.0 m/s 0.0 mm 13.9° 1005.6 hPa 3.6 m/s
05:00 14.7° 1004.4 hPa 2.6 m/s 0.0 mm 12.9° 1002.9 hPa 3.2 m/s 20.6 mm 15.0° 1004.2 hPa 2.4 m/s 0.0 mm 14.0° 1005.1 hPa 3.1 m/s 0.0 mm 13.0° 1005.1 hPa 3.2 m/s
08:00 15.1° 1004.1 hPa 2.2 m/s 0.0 mm 14.8° 1003.1 hPa 4.0 m/s 20.6 mm 15.4° 1003.9 hPa 2.0 m/s 0.0 mm 14.3° 1005.3 hPa 2.7 m/s 0.0 mm 14.5° 1004.6 hPa 2.7 m/s
11:00 18.8° 1003.2 hPa 4.3 m/s 0.0 mm 18.8° 1002.8 hPa 4.1 m/s 20.6 mm 19.5° 1003.2 hPa 4.4 m/s 0.0 mm 17.9° 1003.8 hPa 4.2 m/s
14:00 20.7° 1001.7 hPa 4.8 m/s 0.0 mm 20.5° 1001.5 hPa 4.5 m/s 20.8 mm 21.6° 1002.1 hPa 4.8 m/s 0.0 mm 20.7° 1002.9 hPa 6.3 m/s
17:00 21.1° 1000.9 hPa 4.8 m/s 7.3 mm 21.4° 1000.4 hPa 4.8 m/s 21.6 mm 21.4° 1001.0 hPa 4.3 m/s 0.2 mm 21.2° 1002.3 hPa 6.2 m/s
20:00 18.4° 1000.8 hPa 3.1 m/s 6.6 mm 21.5° 999.5 hPa 3.1 m/s 22.4 mm 18.2° 1000.9 hPa 3.4 m/s 1.6 mm 17.9° 1002.4 hPa 5.6 m/s
23:00 16.5° 1001.8 hPa 4.6 m/s 5.7 mm 17.8° 1000.1 hPa 1.8 m/s 23.0 mm 16.5° 1001.7 hPa 4.9 m/s 0.1 mm 15.2° 1003.2 hPa 5.8 m/s
 06:19     21:15    Daglengte: 14:56 Zondag 08 Aug
02:00 15.3° 1002.6 hPa 5.3 m/s 2.7 mm 14.8° 1001.4 hPa 5.0 m/s 23.6 mm 15.5° 1002.4 hPa 4.3 m/s 0.0 mm 14.1° 1003.8 hPa 5.9 m/s
05:00 14.9° 1002.7 hPa 7.1 m/s 9.2 mm 14.7° 1001.0 hPa 5.6 m/s 24.0 mm 15.5° 1002.4 hPa 8.0 m/s 1.9 mm 13.4° 1004.4 hPa 6.5 m/s
08:00 15.1° 1004.8 hPa 7.7 m/s 0.0 mm 15.0° 1002.8 hPa 6.6 m/s 31.5 mm 15.7° 1004.8 hPa 7.9 m/s 0.0 mm 14.5° 1005.5 hPa 7.4 m/s
11:00 17.4° 1007.0 hPa 8.3 m/s 0.0 mm 17.5° 1007.0 hPa 8.3 m/s 0.0 mm 16.6° 1007.4 hPa 8.3 m/s 11.2 mm
14:00 19.1° 1008.3 hPa 8.6 m/s 2.5 mm 19.1° 1008.2 hPa 8.6 m/s 0.2 mm 19.2° 1008.7 hPa 8.6 m/s 11.9 mm
17:00 21.2° 1010.1 hPa 8.1 m/s 12.4 mm 21.2° 1010.1 hPa 8.1 m/s 12.4 mm
20:00 18.2° 1012.4 hPa 6.8 m/s 12.4 mm 18.2° 1012.4 hPa 6.8 m/s 12.4 mm
23:00 15.3° 1014.2 hPa 5.1 m/s 12.4 mm 15.3° 1014.2 hPa 5.1 m/s 12.4 mm
 06:21     21:13    Daglengte: 14:52 Maandag 09 Aug
02:00 14.6° 1015.0 hPa 5.0 m/s 12.4 mm 14.6° 1015.0 hPa 5.0 m/s 12.4 mm
05:00 13.6° 1015.4 hPa 5.3 m/s 12.4 mm 13.6° 1015.4 hPa 5.3 m/s 12.4 mm
08:00 14.2° 1016.5 hPa 5.4 m/s 12.4 mm 14.2° 1016.5 hPa 5.4 m/s 12.4 mm
11:00 18.4° 1017.8 hPa 6.6 m/s 12.4 mm 18.4° 1017.8 hPa 6.6 m/s 12.4 mm
14:00 18.6° 1018.4 hPa 6.0 m/s 13.2 mm 18.6° 1018.4 hPa 6.0 m/s 13.2 mm
17:00 19.8° 1018.8 hPa 6.3 m/s 14.6 mm 19.8° 1018.8 hPa 6.3 m/s 14.6 mm
20:00 17.6° 1019.6 hPa 4.2 m/s 15.8 mm 17.6° 1019.6 hPa 4.2 m/s 15.8 mm
23:00 14.6° 1020.9 hPa 3.3 m/s 15.8 mm 14.6° 1020.9 hPa 3.3 m/s 15.8 mm
 06:23     21:11    Daglengte: 14:48 Dinsdag 10 Aug
02:00 13.6° 1021.6 hPa 3.3 m/s 15.8 mm 13.6° 1021.6 hPa 3.3 m/s 15.8 mm
05:00 13.0° 1021.4 hPa 3.4 m/s 15.8 mm 13.0° 1021.4 hPa 3.4 m/s 15.8 mm
08:00 14.3° 1022.0 hPa 3.6 m/s 15.8 mm 14.3° 1022.0 hPa 3.6 m/s 15.8 mm
11:00 19.0° 1022.6 hPa 4.7 m/s 15.8 mm 19.0° 1022.6 hPa 4.7 m/s 15.8 mm
14:00 22.5° 1021.5 hPa 4.6 m/s 15.9 mm 22.5° 1021.5 hPa 4.6 m/s 15.9 mm
17:00 22.8° 1020.7 hPa 4.0 m/s 15.9 mm 22.8° 1020.7 hPa 4.1 m/s 15.9 mm
20:00 20.6° 1020.3 hPa 2.8 m/s 15.9 mm 20.6° 1020.3 hPa 2.8 m/s 15.9 mm
23:00 16.4° 1021.1 hPa 1.0 m/s 15.9 mm 16.4° 1021.1 hPa 1.0 m/s 15.9 mm
 06:24     21:09    Daglengte: 14:45 Woensdag 11 Aug
02:00 15.2° 1020.5 hPa 2.0 m/s 15.9 mm 15.2° 1020.5 hPa 2.0 m/s 15.9 mm
05:00 14.5° 1020.0 hPa 2.4 m/s 15.9 mm 14.5° 1020.0 hPa 2.4 m/s 15.9 mm
08:00 16.4° 1020.4 hPa 2.2 m/s 15.9 mm 16.4° 1020.4 hPa 2.2 m/s 15.9 mm
11:00 18.7° 1020.8 hPa 2.9 m/s 15.9 mm 18.7° 1020.8 hPa 2.9 m/s 15.9 mm
14:00 24.2° 1020.7 hPa 3.2 m/s 15.9 mm 24.2° 1020.7 hPa 3.2 m/s 15.9 mm
17:00 22.2° 1020.5 hPa 2.7 m/s 16.0 mm 22.2° 1020.5 hPa 2.7 m/s 16.0 mm
20:00 21.5° 1020.9 hPa 1.4 m/s 16.2 mm 21.5° 1020.9 hPa 1.4 m/s 16.2 mm
23:00 17.9° 1022.2 hPa 1.2 m/s 16.2 mm 17.9° 1022.2 hPa 1.2 m/s 16.2 mm
 06:26     21:07    Daglengte: 14:41 Donderdag 12 Aug
02:00 18.0° 1022.2 hPa 1.6 m/s 16.2 mm 18.0° 1022.2 hPa 1.6 m/s 16.2 mm
05:00 17.9° 1021.9 hPa 0.9 m/s 16.3 mm 17.9° 1021.9 hPa 0.9 m/s 16.3 mm
08:00 18.2° 1022.5 hPa 1.2 m/s 16.9 mm 18.2° 1022.5 hPa 1.2 m/s 16.9 mm
11:00 21.0° 1023.2 hPa 1.0 m/s 17.6 mm 21.0° 1023.2 hPa 1.0 m/s 17.6 mm
14:00 24.8° 1023.0 hPa 1.2 m/s 17.6 mm 24.8° 1023.0 hPa 1.2 m/s 17.6 mm
20:00 23.4° 1022.6 hPa 1.6 m/s 18.1 mm 23.4° 1022.6 hPa 1.6 m/s 18.1 mm
 06:27     21:05    Daglengte: 14:38 Vrijdag 13 Aug
02:00 17.3° 1023.2 hPa 2.7 m/s 18.1 mm 17.3° 1023.2 hPa 2.7 m/s 18.1 mm
08:00 17.6° 1022.7 hPa 2.9 m/s 18.1 mm 17.6° 1022.7 hPa 2.9 m/s 18.1 mm
14:00 26.4° 1020.9 hPa 3.2 m/s 18.1 mm 26.4° 1020.9 hPa 3.2 m/s 18.1 mm
20:00 24.1° 1018.0 hPa 3.1 m/s 18.1 mm 24.1° 1018.0 hPa 3.1 m/s 18.1 mm
 06:29     21:03    Daglengte: 14:34 Zaterdag 14 Aug
02:00 17.6° 1016.5 hPa 3.0 m/s 18.1 mm 17.6° 1016.5 hPa 3.0 m/s 18.1 mm
08:00 18.4° 1014.0 hPa 2.2 m/s 18.1 mm 18.4° 1014.0 hPa 2.2 m/s 18.1 mm
14:00 28.8° 1010.8 hPa 2.9 m/s 18.1 mm 28.8° 1010.8 hPa 2.9 m/s 18.1 mm
20:00 22.8° 1007.9 hPa 7.0 m/s 20.6 mm 22.8° 1007.9 hPa 7.0 m/s 20.6 mm
 06:30     21:01    Daglengte: 14:31 Zondag 15 Aug
02:00 16.4° 1009.2 hPa 5.0 m/s 25.8 mm 16.4° 1009.2 hPa 5.0 m/s 25.8 mm
08:00 15.5° 1014.4 hPa 2.5 m/s 0.8 mm
14:00 20.9° 1014.1 hPa 3.3 m/s 0.4 mm
20:00 19.3° 1013.6 hPa 2.0 m/s 0.8 mm
 06:32     20:59    Daglengte: 14:27 Maandag 16 Aug
02:00 15.5° 1014.0 hPa 1.9 m/s 0.4 mm
08:00 15.4° 1013.7 hPa 2.9 m/s 0.3 mm
14:00 21.1° 1014.5 hPa 3.9 m/s 0.8 mm
20:00 19.5° 1015.1 hPa 2.6 m/s 0.7 mm
 06:33     20:57    Daglengte: 14:24 Dinsdag 17 Aug
02:00 15.2° 1016.0 hPa 2.1 m/s 0.4 mm
08:00 15.4° 1016.2 hPa 2.8 m/s 0.2 mm
14:00 21.7° 1016.4 hPa 3.6 m/s 0.9 mm
20:00 19.9° 1016.2 hPa 2.0 m/s 0.9 mm
 06:35     20:55    Daglengte: 14:20 Woensdag 18 Aug
02:00 15.8° 1016.7 hPa 2.0 m/s 0.6 mm
08:00 15.9° 1016.4 hPa 2.5 m/s 0.4 mm
14:00 22.0° 1016.1 hPa 3.2 m/s 0.5 mm
20:00 20.1° 1015.9 hPa 2.1 m/s 0.9 mm
 06:36     20:53    Daglengte: 14:17 Donderdag 19 Aug
02:00 15.8° 1016.7 hPa 1.3 m/s 0.8 mm
08:00 15.7° 1016.1 hPa 1.9 m/s 0.8 mm
14:00 21.9° 1015.5 hPa 2.7 m/s 1.6 mm
20:00 19.9° 1015.2 hPa 1.8 m/s 0.3 mm
 06:38     20:51    Daglengte: 14:13 Vrijdag 20 Aug
02:00 15.5° 1015.7 hPa 1.1 m/s 0.8 mm
08:00 15.3° 1015.4 hPa 1.6 m/s 0.5 mm
FMI Hirlam - 7.5 km EWN WRFDA - 12 km DWD ICON - 7 km GFS - 25 km Basiskaart






























































Updatetijd (Europe/Brussels) Resolutie Lengte Stap
FMI Hirlam 07:00, 13:00, 19:00, 01:00 7.5 km 49h 1h
EWN WRFDA 04:15, 10:15, 16:15, 22:15 12 km 73h 1h
DWD ICON 11:45, 17:45, 23:45, 05:45 7 km 75h 1h
GFS 08:30, 14:30, 20:30, 02:30 25 km 237h 3h
30+ mm
25-30 mm
20-25 mm
15-20 mm
10-15 mm
6-10 mm
4-6 mm
2-4 mm
1-2 mm
0.5-1 mm
0.2-0.5 mm
0.1-0.2 mm
30+ mm
25-30 mm
20-25 mm
15-20 mm
10-15 mm
6-10 mm
4-6 mm
2-4 mm
1-2 mm
0.5-1 mm
0.2-0.5 mm
0.1-0.2 mm
Sneeuwval
Natte sneeuw
Hagel
Vorst
30+ mm
25-30 mm
20-25 mm
15-20 mm
10-15 mm
6-10 mm
4-6 mm
2-4 mm
1-2 mm
0.5-1 mm
0.2-0.5 mm
0.1-0.2 mm
Sneeuwval
Natte sneeuw
Hagel
Vorst
Onweer
50 mm
40 mm
30 mm
26 mm
22 mm
18 mm
14 mm
10 mm
9 mm
8 mm
7 mm
6 mm
5 mm
4.5 mm
4 mm
3.5 mm
3 mm
2.5 mm
2 mm
1.5 mm
1 mm
0.8 mm
0.6 mm
0.4 mm
0.2 mm
0.05 mm
35°
30°
25°
20°
15°
10°
-5°
-10°
-15°
-20°
-25°
-30°
-35°
33> m/s
29 m/s
25 m/s
21 m/s
17 m/s
14 m/s
11 m/s
8 m/s
5 m/s
3 m/s
0 m/s
2600 J/kg
2400 J/kg
2200 J/kg
2000 J/kg
1800 J/kg
1600 J/kg
1400 J/kg
1200 J/kg
1000 J/kg
800 J/kg
600 J/kg
400 J/kg
200 J/kg
70 dBZ
65 dBZ
60 dBZ
55 dBZ
50 dBZ
45 dBZ
40 dBZ
35 dBZ
30 dBZ
25 dBZ
20 dBZ
15 dBZ
10 dBZ
5 dBZ
-1 K
-2 K
-3 K
-4 K
-5 K
-6 K
-7 K
-8 K
-9 K
950 m²/s²
900 m²/s²
850 m²/s²
800 m²/s²
750 m²/s²
700 m²/s²
650 m²/s²
600 m²/s²
550 m²/s²
500 m²/s²
450 m²/s²
400 m²/s²
350 m²/s²
300 m²/s²
250 m²/s²
200 m²/s²
150 m²/s²
100 m²/s²
46 m/s
44 m/s
42 m/s
40 m/s
38 m/s
36 m/s
34 m/s
32 m/s
30 m/s
28 m/s
26 m/s
24 m/s
22 m/s
20 m/s
16 m/s
12 m/s
8 m/s
4 m/s
30 m/s
28 m/s
26 m/s
24 m/s
22 m/s
20 m/s
18 m/s
16 m/s
14 m/s
12 m/s
10 m/s
8 m/s
6 m/s
4 m/s
2 m/s
3.0
2.8
2.6
2.4
2.2
2.0
1.8
1.6
1.4
1.2
1.0
0.8
0.6
0.4
0.2
15
14
13
12
11
10
9
8
7
6
5
4
3
2
1
90%
80%
70%
60%
50%
40%
30%
20%
10%
42
40
38
36
34
32
30
28
26
24
22
20
18
16
14
12
90+ cm
80-90 cm
70-80 cm
60-70 cm
50-60 cm
40-50 cm
30-40 cm
20-30 cm
10-20 cm
1-10 cm
Sneeuwval
Natte sneeuw
Regen
>120 mm
115 mm
110 mm
105 mm
100 mm
95 mm
90 mm
85 mm
80 mm
75 mm
70 mm
65 mm
60 mm